Cheyenne Regional Jerry Olson Field
KCYS : now visible

Airfield :











YOU CAN JOIN US ON...

 
LOGIN :

Register | Disclaimer

   EN    FR    IT 

 









Legend :    VFR   Marginal VFR   IFR   Intensive IFR   Very Intensive IFR
Visi :
Ceiling :
>= 8 km
>= 3000ft
5 to 8 km
1000 to 3000 ft
1500m to 5 km
500 to 1000 ft
800 to 1500m
200 to 500 ft
< 800m
< 200 ft
Symbols :   Thunderstorms  Fog  Heavy snow  Heavy precipitations  Wind > 20 kt






- Airport Elevation : 6159 ft
- IATA code : CYS


KCYS - Cheyenne Regional Jerry Olson Field

CURRENT METAR :
  • 210353Z 22006KT 10SM SCT100 01/M09 A2995 RMK AO2 PK WND 27026/0300 SLP141 T00111089

EXPIRED METARs :
  • 210253Z 26019G27KT 10SM CLR 03/M09 A2995 RMK AO2 PK WND 27031/0217 SLP140 T00281089 58002
  • 210153Z 25020G34KT 10SM CLR 03/M09 A2995 RMK AO2 PK WND 24034/0148 SLP141 T00331094

TAF KCYS
Valid from the 21 at 00:00 until the 22 at 00:00 UTC


202320Z 2100/2124 27022G35KT P6SM SCT150
FM211200 30012KT P6SM BKN100
KZDV FIR / North America



MET'MAP, your aeronautical weather chart ! - Copyright ORBIFLY December 2007 - Disclaimer

ORBIFLY MET'MAP TEAM :

Programming & Development : Alexandra Zaïnal
Concept & original design : Baudouin d'Aumeries
Assistance for programming : Marc-Olivier Méhu
Technical & hardware support : Manuel Goepfert

Contact : metmap@orbifly.com




SOURCES & CREDITS :

   NOAA       Earth
Advisory